Stündliche Wetter Otoruda

Heute, 15 April, Donnerstag

Zeit Temperatur Niederschläge Wind Luftdruck Luftfeuchtigkeit
00:00 -1°C° 0.1 mm 6 m/S 758 mmHg 86%
01:00 -1°C° 0.1 mm 6 m/S 758 mmHg 90%
02:00 -1°C° 0.2 mm 6 m/S 757 mmHg 92%
03:00 -1°C° 0.2 mm 6 m/S 757 mmHg 93%
04:00 -1°C° 0.2 mm 6 m/S 757 mmHg 95%
05:00 -1°C° 0.4 mm 6 m/S 757 mmHg 95%
06:00 -1°C° 0.4 mm 7 m/S 757 mmHg 96%
07:00 -1°C° 0.4 mm 7 m/S 757 mmHg 96%
08:00 -1°C° 0.7 mm 7 m/S 757 mmHg 96%
09:00 -1°C° 0.7 mm 6 m/S 756 mmHg 96%
10:00 -1°C° 0.7 mm 6 m/S 756 mmHg 96%
11:00 -1°C° 1.1 mm 6 m/S 756 mmHg 97%
12:00 -1°C° 1.1 mm 6 m/S 756 mmHg 97%
13:00 -1°C° 1.1 mm 6 m/S 756 mmHg 97%
14:00 -1°C° 0.9 mm 6 m/S 756 mmHg 97%
15:00 +1°C° 0.9 mm 6 m/S 756 mmHg 97%
16:00 +1°C° 0.9 mm 6 m/S 756 mmHg 97%
17:00 +1°C° 0.6 mm 5 m/S 756 mmHg 95%
18:00 +2°C° 0.6 mm 5 m/S 756 mmHg 93%
19:00 +2°C° 0.6 mm 5 m/S 756 mmHg 92%
20:00 +2°C° 0.1 mm 5 m/S 756 mmHg 92%
21:00 +3°C° 0.1 mm 4 m/S 756 mmHg 92%
22:00 +3°C° 0.1 mm 4 m/S 756 mmHg 92%
23:00 +3°C° 0.1 mm 4 m/S 756 mmHg 92%

Morgen, 16 April, Freitag

Zeit Temperatur Niederschläge Wind Luftdruck Luftfeuchtigkeit
00:00 +3°C° 0.1 mm 4 m/S 756 mmHg 91%
01:00 +1°C° 0.1 mm 4 m/S 756 mmHg 91%
02:00 +1°C° 0 mm 4 m/S 755 mmHg 91%
03:00 +1°C° 0 mm 4 m/S 755 mmHg 91%
04:00 +1°C° 0 mm 4 m/S 755 mmHg 91%
05:00 +1°C° 0.1 mm 4 m/S 755 mmHg 91%
06:00 +1°C° 0.1 mm 4 m/S 755 mmHg 91%
07:00 +1°C° 0.1 mm 5 m/S 755 mmHg 91%
08:00 +1°C° 0 mm 5 m/S 755 mmHg 92%
09:00 +1°C° 0 mm 5 m/S 756 mmHg 93%
10:00 +1°C° 0 mm 5 m/S 756 mmHg 94%
11:00 +2°C° 0 mm 5 m/S 756 mmHg 93%
12:00 +2°C° 0 mm 5 m/S 756 mmHg 93%
13:00 +3°C° 0 mm 4 m/S 756 mmHg 92%
14:00 +3°C° 0 mm 4 m/S 756 mmHg 92%
15:00 +3°C° 0 mm 4 m/S 756 mmHg 93%
16:00 +3°C° 0 mm 4 m/S 756 mmHg 93%
17:00 +3°C° 0 mm 4 m/S 756 mmHg 94%
18:00 +3°C° 0 mm 3 m/S 756 mmHg 95%
19:00 +3°C° 0 mm 3 m/S 756 mmHg 96%
20:00 +3°C° 0 mm 3 m/S 756 mmHg 97%
21:00 +3°C° 0 mm 3 m/S 756 mmHg 97%
22:00 +3°C° 0 mm 3 m/S 756 mmHg 98%
23:00 +3°C° 0 mm 3 m/S 756 mmHg 98%

übermorgen, 17 April, Samstag

Zeit Temperatur Niederschläge Wind Luftdruck Luftfeuchtigkeit
00:00 +3°C° 0 mm 3 m/S 756 mmHg 98%
01:00 +3°C° 0 mm 3 m/S 756 mmHg 98%
02:00 +3°C° 0 mm 3 m/S 756 mmHg 98%
03:00 +4°C° 0 mm 3 m/S 756 mmHg 98%
04:00 +4°C° 0 mm 3 m/S 756 mmHg 98%
05:00 +4°C° 0 mm 3 m/S 756 mmHg 97%
06:00 +5°C° 0 mm 3 m/S 756 mmHg 97%
07:00 +5°C° 0 mm 3 m/S 756 mmHg 97%
08:00 +5°C° 0.3 mm 3 m/S 756 mmHg 96%
09:00 +7°C° 0.3 mm 3 m/S 756 mmHg 95%
10:00 +7°C° 0.3 mm 3 m/S 756 mmHg 94%
11:00 +9°C° 0.2 mm 3 m/S 756 mmHg 88%
12:00 +10°C° 0.2 mm 3 m/S 756 mmHg 82%
13:00 +11°C° 0.2 mm 3 m/S 756 mmHg 76%
14:00 +11°C° 0.2 mm 3 m/S 756 mmHg 77%
15:00 +11°C° 0.2 mm 3 m/S 756 mmHg 77%
16:00 +11°C° 0.2 mm 3 m/S 756 mmHg 78%
17:00 +10°C° 0.2 mm 3 m/S 756 mmHg 81%
18:00 +9°C° 0.2 mm 3 m/S 756 mmHg 85%
19:00 +8°C° 0.2 mm 2 m/S 757 mmHg 89%
20:00 +7°C° 0 mm 2 m/S 757 mmHg 90%
21:00 +7°C° 0 mm 2 m/S 757 mmHg 91%
22:00 +6°C° 0 mm 2 m/S 757 mmHg 93%
23:00 +6°C° 0 mm 2 m/S 757 mmHg 93%

18 April, Sonntag

Zeit Temperatur Niederschläge Wind Luftdruck Luftfeuchtigkeit
00:00 +6°C° 0 mm 2 m/S 757 mmHg 93%
01:00 +5°C° 0 mm 2 m/S 757 mmHg 93%
02:00 +6°C° 0.1 mm 2 m/S 757 mmHg 93%
03:00 +6°C° 0.1 mm 2 m/S 756 mmHg 93%
04:00 +6°C° 0.1 mm 2 m/S 756 mmHg 93%
05:00 +6°C° 0 mm 2 m/S 756 mmHg 92%
06:00 +6°C° 0 mm 2 m/S 756 mmHg 90%
07:00 +6°C° 0 mm 2 m/S 756 mmHg 89%
08:00 +8°C° 0 mm 2 m/S 756 mmHg 83%
09:00 +9°C° 0 mm 3 m/S 756 mmHg 76%
10:00 +10°C° 0 mm 3 m/S 756 mmHg 70%
11:00 +10°C° 0 mm 3 m/S 756 mmHg 68%
12:00 +11°C° 0 mm 3 m/S 756 mmHg 66%
13:00 +11°C° 0 mm 3 m/S 756 mmHg 64%
14:00 +11°C° 0 mm 3 m/S 756 mmHg 62%
15:00 +12°C° 0 mm 3 m/S 756 mmHg 60%
16:00 +12°C° 0 mm 3 m/S 756 mmHg 58%
17:00 +11°C° 0 mm 3 m/S 756 mmHg 64%
18:00 +10°C° 0 mm 3 m/S 756 mmHg 69%
19:00 +8°C° 0 mm 2 m/S 757 mmHg 75%
20:00 +8°C° 0 mm 2 m/S 757 mmHg 76%
21:00 +8°C° 0 mm 2 m/S 757 mmHg 77%
22:00 +8°C° 0 mm 2 m/S 757 mmHg 79%
23:00 +7°C° 0 mm 2 m/S 757 mmHg 79%

19 April, Montag

Zeit Temperatur Niederschläge Wind Luftdruck Luftfeuchtigkeit
00:00 +7°C° 0 mm 2 m/S 756 mmHg 79%
01:00 +7°C° 0 mm 2 m/S 756 mmHg 79%
02:00 +7°C° 0 mm 2 m/S 756 mmHg 79%
03:00 +7°C° 0 mm 2 m/S 756 mmHg 79%
04:00 +7°C° 0 mm 2 m/S 756 mmHg 79%
05:00 +7°C° 0 mm 2 m/S 756 mmHg 77%
06:00 +8°C° 0 mm 2 m/S 756 mmHg 75%
07:00 +9°C° 0 mm 3 m/S 755 mmHg 74%
08:00 +10°C° 0 mm 3 m/S 755 mmHg 70%
09:00 +11°C° 0 mm 4 m/S 755 mmHg 66%
10:00 +12°C° 0 mm 5 m/S 755 mmHg 62%
11:00 +12°C° 0.1 mm 5 m/S 754 mmHg 63%
12:00 +12°C° 0.1 mm 5 m/S 754 mmHg 63%
13:00 +12°C° 0.1 mm 5 m/S 754 mmHg 64%
14:00 +12°C° 0.2 mm 4 m/S 753 mmHg 69%
15:00 +11°C° 0.2 mm 4 m/S 753 mmHg 73%
16:00 +11°C° 0.2 mm 3 m/S 753 mmHg 78%
17:00 +10°C° 0.3 mm 3 m/S 753 mmHg 82%
18:00 +10°C° 0.3 mm 2 m/S 752 mmHg 85%
19:00 +9°C° 0.3 mm 2 m/S 752 mmHg 89%
20:00 +9°C° 0.2 mm 2 m/S 752 mmHg 90%
21:00 +9°C° 0.2 mm 3 m/S 751 mmHg 90%
22:00 +9°C° 0.2 mm 3 m/S 751 mmHg 91%
23:00 +9°C° 0 mm 3 m/S 751 mmHg 92%

20 April, Dienstag

Zeit Temperatur Niederschläge Wind Luftdruck Luftfeuchtigkeit
00:00 +8°C° 0 mm 3 m/S 750 mmHg 93%
01:00 +8°C° 0 mm 3 m/S 750 mmHg 94%
02:00 +8°C° 0 mm 3 m/S 750 mmHg 94%
03:00 +8°C° 0 mm 3 m/S 749 mmHg 95%
04:00 +7°C° 0 mm 3 m/S 749 mmHg 95%
05:00 +8°C° 0.1 mm 3 m/S 749 mmHg 94%
06:00 +7°C° 0.1 mm 4 m/S 749 mmHg 93%
07:00 +7°C° 0.1 mm 4 m/S 748 mmHg 91%
08:00 +7°C° 0 mm 4 m/S 748 mmHg 90%
09:00 +8°C° 0 mm 4 m/S 748 mmHg 90%
10:00 +8°C° 0 mm 4 m/S 747 mmHg 89%
11:00 +8°C° 0 mm 5 m/S 747 mmHg 87%
12:00 +8°C° 0 mm 5 m/S 747 mmHg 86%
13:00 +9°C° 0 mm 5 m/S 747 mmHg 84%
14:00 +8°C° 0 mm 5 m/S 747 mmHg 86%
15:00 +8°C° 0 mm 5 m/S 746 mmHg 87%
16:00 +8°C° 0 mm 4 m/S 746 mmHg 88%
17:00 +8°C° 0 mm 5 m/S 746 mmHg 88%
18:00 +7°C° 0 mm 5 m/S 746 mmHg 89%
19:00 +7°C° 0 mm 5 m/S 746 mmHg 89%
20:00 +7°C° 0 mm 5 m/S 746 mmHg 90%
21:00 +6°C° 0 mm 5 m/S 745 mmHg 91%
22:00 +6°C° 0 mm 4 m/S 745 mmHg 91%
23:00 +6°C° 0 mm 4 m/S 745 mmHg 91%
Mehr zeigen

Wir brauchen deine Erlaubnis

Meteoprog und unser Service Anbieter werden persönliche Daten aufbewahren, so wie Cookies, Geräte Bezeichnung oder ähnliche Technologien von deinem Gerät und Prozess, so wie Persönliche Daten Inhalte und Werbungen, genauso wie social Media und den Verkehr zu analysieren.

  • Aufbewahrung und/oder Zugang zu deiner Geräte Informationen.

    Cookies, Geräte Bezeichnung oder andere Informationen, können aufbewahrt oder Zugang zu deinem Gerät erhalten, für den Grund, der oben angegeben wird.

  • Personalisierte Werbung und Inhalte, Messungen, Einblick in das Publikum und Produkt Entwicklung.

    Werbungen und Inhalte können personalisiert werden, basierend auf ein Profil. Mehr Daten können besser personalisierte Werbungen und Inhalte hinzufügen. Werbung und Inhalte können gezeigt und gemessen werden. Einblicke über das Publikum, welche die Werbung gesehen haben und den Inhalt, können abgeleitet werden. So wie Daten können genutzt werden, um es zu verbessern oder die Benutzer Erfahrung zu verbessern das System und die Software.

Wenn du “Ich stimme zu” klickst, erlaubst du uns, die Cookies zu benutzen die Geräte Bezeichnung, den Web oder ähnliche Technologien zu benutzen. Deine Settings, können in deinem Gerät bei deinem Browser geändert werden.

Für den bestimmten Zweck, berechtigten Interessen beruhen darauf, mehr als auf den Inhalt. Du kannst mehr darüber in unseren Privaten und Cookie Politik lesen.